Theta_e
335 335 335 335 334 334 333 333 330 328 330 333 335 336 336 335 336 335 335 334 333 332 331 330 330 329 328 328 327 328 325 315 308 309 308 309 313 316 317 317 317 318 318 318 321 323 324 325 324 323 324 327 326 324 320 320 322 324 325 326 326 326 327 328 328 328 326 319 318 327 331 331 323 314 315 318 323 327 327 326 327 328 328 328 328
334 335 336 335 335 335 334 334 331 330 330 332 333 334 334 333 334 333 333 332 331 330 329 328 326 326 325 326 327 326 325 316 308 309 308 308 309 312 314 315 315 315 315 316 318 320 324 326 325 324 324 325 323 319 316 316 319 321 324 324 325 325 326 326 326 325 321 316 319 326 328 326 318 310 312 312 315 318 321 321 321 321 320 319 321
333 335 336 335 335 335 334 334 333 333 332 331 330 331 331 331 331 331 331 330 329 328 326 325 325 327 327 327 325 322 322 315 308 309 308 308 308 309 311 313 314 313 313 312 313 316 322 326 325 323 323 321 318 316 314 313 313 315 317 318 318 318 319 320 320 319 316 314 317 321 321 318 312 308 309 309 310 312 315 318 318 318 318 317 317
332 334 336 335 335 336 335 334 334 334 333 332 327 326 328 328 328 327 326 327 326 325 325 324 326 330 329 326 321 318 318 313 309 309 307 308 308 308 309 310 312 311 312 310 312 317 322 326 326 325 321 317 314 312 311 310 309 309 310 310 310 310 311 312 314 313 314 315 314 318 316 310 308 307 307 308 307 308 310 312 313 313 313 313 312
333 332 335 335 335 336 335 335 334 333 333 332 326 322 325 326 325 323 322 323 322 321 321 321 326 330 327 323 318 315 315 311 309 309 307 308 308 309 309 308 309 309 310 310 314 320 324 326 325 325 321 314 311 308 308 307 307 308 308 308 308 308 308 309 310 310 313 314 312 314 311 307 308 307 307 307 307 307 308 308 308 309 309 309 308
334 333 335 335 335 335 335 334 334 334 333 333 329 324 323 324 322 322 322 322 321 317 317 321 326 329 325 321 319 316 314 312 311 310 307 307 308 308 308 308 309 308 311 313 316 322 326 327 326 325 318 311 308 307 307 307 307 307 308 308 308 308 309 309 308 309 311 310 309 309 307 308 310 309 310 310 309 308 308 308 308 308 308 308 308
334 335 335 335 336 335 335 334 334 334 333 333 332 329 325 323 322 322 322 322 320 316 316 323 327 327 324 322 321 319 317 315 313 312 309 307 306 307 307 307 307 307 312 317 320 323 327 326 322 319 313 309 309 308 307 307 307 307 307 308 308 309 309 308 308 309 309 309 311 309 309 311 313 314 316 314 310 309 309 309 309 309 309 309 310
335 336 335 336 336 335 334 334 334 333 332 332 333 332 328 325 324 322 322 321 319 316 318 325 327 326 323 323 323 322 321 320 317 314 312 309 306 306 306 306 306 305 310 318 322 322 324 322 316 314 313 314 313 311 310 308 307 307 307 308 308 309 309 309 309 309 311 314 314 314 316 316 318 320 319 314 311 309 309 310 309 309 309 310 312
336 336 336 336 336 336 334 334 333 332 331 332 333 333 330 327 324 322 322 320 318 318 322 327 326 323 323 324 324 323 323 322 320 318 315 313 309 306 305 305 305 305 310 318 321 322 324 322 318 318 319 319 317 314 311 308 307 307 308 308 308 309 309 309 310 313 317 319 316 317 322 323 323 322 319 317 314 310 309 311 311 310 310 310 312
337 336 336 336 336 336 335 334 333 333 332 331 333 332 329 326 324 322 321 319 318 321 325 327 326 324 323 324 324 323 324 323 322 320 317 315 312 308 305 305 305 306 315 320 321 321 321 321 320 319 317 314 313 310 308 307 307 308 308 308 308 309 309 309 311 318 321 323 322 320 323 324 324 321 319 320 319 312 309 309 310 311 310 310 311
337 337 336 336 336 337 336 335 334 333 333 332 332 331 328 325 324 322 321 319 319 323 326 328 328 326 324 323 323 322 323 323 322 321 318 316 314 311 307 305 305 308 316 320 320 319 318 319 318 316 312 308 307 306 306 307 307 307 307 308 308 308 309 309 311 318 321 322 324 323 323 324 324 323 322 322 322 318 314 311 309 310 310 309 310
337 337 336 336 336 337 336 335 334 333 332 332 332 331 328 325 324 322 321 319 320 324 327 328 328 326 323 322 321 320 320 320 320 319 317 316 314 313 309 306 305 306 312 318 319 317 317 316 312 309 307 306 306 306 306 306 306 307 307 307 307 307 308 309 310 316 320 320 322 323 324 325 324 324 324 324 323 321 320 317 314 314 314 313 314
336 337 337 336 336 337 336 336 335 334 333 332 332 330 329 327 324 323 322 321 320 323 326 327 327 325 323 322 321 321 320 318 318 318 316 315 314 313 311 308 305 305 307 311 312 311 311 309 307 306 306 305 305 305 305 305 305 306 306 306 306 306 307 307 310 317 322 323 323 324 325 325 323 323 324 324 323 321 322 322 320 321 321 319 319
336 336 337 336 337 337 336 336 335 334 334 333 332 331 330 328 326 324 323 321 320 322 323 323 324 323 322 321 321 322 322 319 318 318 316 316 315 313 311 309 306 305 304 305 305 305 306 305 305 305 305 305 304 304 304 304 304 304 304 305 305 305 306 306 310 317 323 324 324 324 324 322 320 323 324 324 323 323 323 322 322 323 322 321 322
336 336 336 336 337 337 336 336 335 335 334 334 332 331 331 329 327 325 325 323 322 322 322 323 323 322 321 322 322 322 323 321 320 318 317 317 315 313 311 309 306 304 304 304 304 304 304 304 304 304 304 304 305 305 306 307 307 307 306 305 304 304 304 305 307 313 320 324 324 323 323 322 321 323 323 323 323 324 324 322 320 321 322 322 323
336 337 336 336 336 337 337 336 336 335 335 334 333 332 331 330 329 327 326 325 324 324 324 325 324 323 321 321 321 322 324 323 321 320 319 319 316 313 311 309 306 304 304 303 304 304 305 305 306 307 308 309 311 312 312 312 312 312 311 309 307 305 304 305 305 309 316 320 321 321 322 322 321 323 324 322 323 323 323 322 320 321 322 322 322
335 336 336 335 335 336 336 336 335 335 335 334 333 332 332 331 330 329 327 326 326 325 325 327 326 324 322 321 320 321 324 324 323 321 320 320 316 314 312 311 309 308 307 308 309 311 312 312 313 314 314 316 316 317 317 316 316 315 314 313 311 308 305 305 304 305 309 310 313 316 318 317 315 320 324 322 322 322 322 322 321 322 322 321 322
334 336 335 334 334 334 335 335 334 335 334 334 334 333 332 332 331 330 329 327 327 326 326 327 326 324 323 321 320 320 323 324 324 323 321 321 318 315 314 314 313 313 313 314 316 316 317 317 318 318 318 318 318 318 318 318 317 317 315 314 313 309 307 306 304 303 304 304 306 308 309 308 307 312 317 319 321 321 322 321 320 322 322 321 321
333 334 333 332 333 334 334 334 333 334 335 334 334 333 333 333 332 331 330 329 327 327 326 327 326 324 323 322 321 321 322 323 325 325 322 321 320 317 316 317 316 316 317 318 319 319 319 319 319 319 319 319 319 319 319 318 317 317 315 314 313 311 309 306 304 304 306 309 312 312 309 306 305 307 309 311 314 319 322 319 318 320 321 320 321
331 331 330 330 331 333 334 334 333 333 334 334 334 334 333 332 333 331 330 330 328 328 327 327 326 324 323 323 322 322 321 322 324 326 324 322 321 320 319 319 320 319 320 321 321 321 320 319 319 320 320 320 320 319 319 318 317 316 315 314 313 313 311 307 307 310 314 316 317 318 317 315 313 313 314 311 308 313 316 315 316 319 320 318 318
330 330 329 329 330 332 332 333 334 333 333 334 335 334 333 332 333 332 331 331 330 329 328 327 326 325 324 324 325 323 322 322 323 325 326 323 322 322 321 321 322 322 322 322 322 322 321 320 320 320 321 320 320 320 319 318 317 316 315 315 314 314 312 310 312 316 318 319 319 318 319 319 319 319 319 317 314 311 308 308 313 317 318 315 314
328 329 328 328 330 331 331 331 333 333 333 333 335 334 333 331 332 332 331 331 331 330 329 328 327 326 325 325 326 325 323 323 322 324 326 325 323 322 322 322 322 323 323 323 323 322 321 320 320 321 321 320 320 320 319 318 317 316 316 316 316 315 314 314 315 317 319 319 319 319 318 319 319 319 319 318 317 316 312 309 310 311 311 310 310
322 326 326 327 328 329 330 330 331 332 332 332 334 334 332 331 331 332 332 332 332 331 331 330 328 327 327 327 327 326 325 324 323 324 325 326 324 323 323 323 322 323 324 324 323 323 322 321 321 321 321 320 320 320 319 318 317 317 317 316 316 316 316 316 316 317 318 318 319 318 318 318 317 318 318 317 317 318 317 314 313 312 310 310 309
317 320 322 323 325 328 330 329 329 330 331 332 332 333 333 331 330 331 331 332 332 332 332 331 329 327 328 327 327 327 326 325 325 324 325 326 325 323 323 324 323 324 324 325 324 323 323 322 321 321 321 320 320 320 319 318 318 317 317 317 317 317 316 316 317 317 317 318 318 318 318 317 316 317 318 318 318 318 317 316 316 315 314 312 311
315 316 318 319 322 327 329 328 328 328 330 330 330 332 333 332 331 330 331 331 332 333 332 331 330 329 328 328 328 328 326 327 326 325 326 327 326 325 323 324 324 324 325 325 325 324 323 323 322 321 321 321 320 319 319 318 318 318 318 317 317 317 317 317 316 316 316 316 316 317 317 317 317 318 319 318 318 317 317 317 317 317 316 314 311
316 315 316 317 318 322 323 323 324 326 327 326 328 330 331 331 331 330 331 330 330 332 332 332 331 330 328 328 328 329 328 327 327 326 326 327 327 326 324 324 324 324 325 325 325 324 324 323 323 322 321 320 320 319 318 318 318 318 318 318 318 317 316 316 315 315 315 314 314 313 315 317 318 318 318 318 317 317 316 316 317 318 317 315 313
315 315 315 315 315 316 316 316 319 321 321 320 323 326 326 328 330 331 331 330 331 332 332 331 332 331 329 329 329 329 329 328 328 327 327 328 328 326 324 324 325 325 325 324 324 324 323 323 323 322 320 320 319 318 317 317 317 317 317 317 317 316 314 312 313 313 311 310 310 310 313 316 317 318 318 317 317 316 316 316 316 317 317 316 315
314 315 315 315 314 315 315 316 318 320 319 318 318 319 318 322 327 331 332 329 329 331 333 331 331 332 330 329 329 329 330 329 329 328 327 328 328 327 325 324 325 325 324 324 323 322 323 323 323 322 320 319 318 317 316 316 316 317 317 316 315 313 310 309 309 309 307 307 307 307 309 312 312 314 314 314 315 316 316 315 315 317 317 316 312
314 314 314 314 314 314 315 316 317 318 319 319 318 317 318 322 323 327 331 328 327 330 331 331 330 331 331 330 330 330 330 330 329 328 328 329 329 328 326 325 326 326 325 323 322 322 322 323 323 322 320 318 318 317 315 314 315 316 315 314 311 309 308 307 307 306 306 305 305 304 305 306 306 306 307 308 311 313 314 314 315 317 315 311 305
314 314 314 314 314 314 315 315 315 316 317 317 318 318 321 327 327 324 326 326 329 330 327 330 330 329 331 331 331 331 330 331 330 328 328 328 329 329 327 326 326 326 326 323 323 322 322 322 322 322 320 318 318 316 315 313 312 314 312 309 307 307 306 306 305 305 304 304 303 303 302 303 302 302 302 302 304 306 308 308 310 311 309 306 301
314 314 314 314 313 313 314 314 314 314 315 315 316 318 318 324 326 321 319 321 327 328 327 332 330 328 331 329 330 331 330 331 330 329 329 328 329 330 328 327 327 327 326 324 323 323 322 323 322 322 320 319 318 316 315 312 309 309 308 307 306 306 306 305 305 304 303 303 302 302 301 301 300 300 299 299 299 300 300 299 300 300 301 304 302
314 314 313 313 313 313 313 313 314 313 314 314 314 317 317 318 320 318 318 318 322 325 326 327 327 330 330 327 329 329 329 330 330 330 330 328 328 330 328 327 327 326 326 324 323 323 322 322 322 321 320 320 318 316 315 312 307 306 306 306 306 305 305 304 304 303 302 302 301 301 300 300 299 299 298 298 298 297 297 296 297 296 296 301 302
314 314 313 313 313 313 313 313 314 313 314 314 313 315 315 315 316 316 317 317 318 320 321 324 327 330 327 327 331 328 327 329 329 329 329 328 328 329 328 327 328 327 325 324 324 323 322 322 321 320 321 320 318 316 315 313 307 304 304 305 305 304 304 303 303 302 302 301 301 300 300 299 298 298 297 297 296 296 297 295 296 295 295 297 298
314 314 313 313 313 313 313 313 313 314 313 314 314 314 314 314 313 314 315 316 315 314 320 329 332 331 327 327 330 327 326 328 328 328 328 328 327 329 329 328 328 327 326 325 324 324 323 322 321 321 322 320 318 316 316 314 307 303 304 305 304 304 303 302 302 301 301 301 301 300 300 299 298 297 296 296 296 296 296 295 295 295 295 295 295
314 314 314 313 313 312 313 313 313 313 313 313 313 313 313 312 312 312 312 314 314 314 322 332 335 332 328 326 326 326 330 329 327 326 327 328 328 328 329 328 328 327 326 325 325 325 323 322 321 321 322 320 318 316 316 314 306 302 304 305 304 303 302 302 301 301 301 301 301 300 300 298 297 296 296 295 295 296 295 295 295 294 295 294 294
314 314 314 313 313 313 312 313 313 313 312 313 312 312 311 311 312 312 312 313 315 321 324 325 328 329 325 326 328 327 328 328 328 327 326 328 328 327 329 329 327 327 327 326 325 325 322 322 322 322 321 320 318 316 317 314 305 302 304 304 304 303 302 302 302 302 302 301 301 300 299 297 296 296 295 295 295 295 295 295 295 294 294 293 294
314 314 314 314 313 313 313 312 312 313 312 312 311 311 311 311 311 311 312 311 314 323 323 320 325 326 321 325 328 325 323 323 326 327 325 326 327 327 329 328 325 326 327 325 325 324 322 322 322 321 321 320 318 317 317 314 304 302 305 304 303 302 302 302 302 302 302 301 301 300 299 297 296 296 295 295 295 295 294 294 294 293 293 293 293
314 314 313 314 313 313 313 312 312 312 312 312 311 311 311 311 311 311 311 311 313 318 320 324 329 327 323 324 325 323 322 323 324 325 325 324 326 329 329 328 327 327 327 325 323 322 322 323 323 321 321 320 318 317 317 312 304 303 305 304 303 302 302 302 302 302 302 301 300 299 298 296 296 295 295 295 294 294 294 293 293 293 293 292 292
315 314 313 313 313 313 313 312 312 312 312 311 311 311 311 312 312 311 311 311 313 317 320 324 327 327 325 324 324 323 323 327 327 326 325 323 325 329 329 329 329 327 326 325 322 320 322 323 322 321 320 319 317 317 316 311 304 303 305 304 302 302 302 302 302 302 301 300 300 299 297 296 295 295 294 294 294 294 293 293 293 292 292 292 292
315 314 314 313 313 313 313 313 313 312 312 311 312 312 312 313 311 312 312 309 313 318 317 318 322 326 327 324 325 325 325 328 327 325 325 323 325 327 327 328 328 326 324 323 322 321 322 322 321 321 321 319 316 316 315 311 304 303 304 303 302 301 301 302 302 302 301 300 299 298 296 295 295 294 294 294 293 293 293 292 292 292 292 292 292
316 315 314 314 314 314 313 314 313 312 313 312 312 312 312 313 312 312 312 311 317 319 317 320 324 324 324 326 328 327 326 324 322 322 322 323 325 325 325 325 326 325 321 321 323 323 323 321 321 321 320 319 316 316 315 311 305 303 303 302 301 301 302 302 302 302 301 299 299 297 295 294 294 294 293 293 293 293 292 292 292 291 292 291 291
317 316 315 315 314 314 314 313 313 313 313 313 312 313 312 312 313 313 312 313 318 318 318 323 325 324 325 328 328 327 325 322 321 322 321 322 325 325 325 324 324 323 320 322 324 323 322 321 321 320 318 318 317 316 315 310 305 304 304 302 301 301 302 302 302 302 300 299 298 296 294 294 294 293 293 293 292 292 292 292 291 291 291 291 290
317 316 316 315 315 314 314 314 314 313 313 312 313 313 312 312 312 312 313 313 315 317 318 318 320 324 328 329 327 326 325 323 323 322 321 324 327 327 325 324 323 322 322 323 324 322 322 321 320 320 319 316 315 315 314 309 304 304 304 302 301 300 300 301 301 301 300 298 297 295 294 293 293 293 293 292 292 292 291 291 291 291 291 290 290
318 317 316 316 315 315 315 315 314 314 313 313 313 312 312 312 311 312 312 313 315 320 320 317 318 324 328 328 327 326 324 323 323 322 320 322 325 325 326 325 323 323 324 324 323 322 322 321 320 319 320 318 316 315 313 307 304 304 303 301 302 300 298 299 300 300 299 297 296 294 293 293 293 293 292 292 292 291 291 291 291 290 290 290 290
317 318 317 317 316 316 315 315 315 314 314 313 313 312 312 311 311 311 312 314 318 320 319 318 321 325 327 327 326 325 322 321 322 323 322 321 322 322 323 324 323 323 323 322 321 320 321 321 319 319 320 319 318 315 310 305 303 304 304 302 302 301 299 300 299 298 297 296 295 294 293 293 292 292 292 291 291 291 290 290 290 290 289 289 289
317 317 318 317 317 316 315 315 315 314 314 314 313 312 312 312 312 312 312 315 317 317 316 318 321 322 322 322 322 323 323 322 323 324 323 321 320 320 321 322 322 322 322 319 317 318 321 321 319 319 319 319 317 313 306 303 303 304 303 302 301 301 301 300 298 296 295 295 294 293 293 293 292 292 291 291 290 290 290 290 289 289 289 289 288
318 318 318 317 316 316 315 315 315 314 314 314 313 312 311 311 312 312 312 313 314 314 314 317 319 319 318 320 322 324 324 324 324 323 321 319 318 319 320 319 321 322 320 319 318 319 321 320 319 319 319 317 315 310 304 302 303 303 302 301 301 300 299 298 298 296 294 294 294 293 293 292 292 291 291 290 290 290 289 289 289 289 289 288 288
318 318 317 317 316 315 315 314 314 313 313 313 312 312 311 311 311 311 312 313 313 314 314 316 319 319 320 322 324 325 324 324 323 321 320 319 317 318 319 318 318 320 319 320 322 320 319 320 319 319 318 315 310 306 303 302 303 303 301 300 299 299 298 296 297 296 295 294 293 293 293 292 292 291 291 290 290 290 289 289 289 289 288 288 288
318 318 317 317 316 315 314 314 313 313 313 313 312 311 310 310 310 311 312 312 312 313 315 318 320 321 323 324 325 324 323 322 320 319 319 318 317 318 318 318 317 319 320 321 321 319 319 320 319 319 317 311 307 304 303 302 302 302 300 299 299 298 297 296 296 295 295 294 293 293 293 292 292 291 291 290 290 289 289 289 289 288 288 288 287
318 318 318 317 316 316 315 314 313 312 312 312 311 310 310 309 310 310 311 312 311 312 315 319 321 323 323 321 321 321 321 320 319 319 319 317 318 319 318 318 319 321 322 321 320 320 320 319 320 319 313 306 304 303 302 302 301 300 299 299 298 298 297 296 296 296 295 294 293 293 293 292 291 291 291 290 289 289 289 289 288 288 288 287 287
318 318 318 318 317 316 316 314 313 312 312 311 311 310 309 309 309 310 311 311 311 312 315 319 321 321 320 318 319 320 321 321 320 319 318 316 318 319 316 317 320 321 320 320 320 320 320 319 319 316 309 304 303 301 301 301 300 299 298 298 298 297 297 297 297 296 295 294 293 293 292 292 291 290 291 290 289 289 289 289 288 288 288 287 287
Wind_Speed
14 14 15 16 16 15 14 13 12 13 13 11 10 11 12 12 12 13 12 12 13 12 11 11 10 10 12 12 12 12 13 14 14 15 15 15 14 14 12 12 12 12 11 11 12 14 15 15 16 16 18 18 16 15 16 16 16 15 15 14 13 13 12 13 13 13 13 16 18 20 21 19 16 16 15 11 9 8 9 10 11 12 14 14 13
16 15 15 15 15 15 14 13 14 13 12 11 11 11 11 12 12 12 12 12 12 11 11 10 10 10 11 12 11 11 11 13 14 15 15 15 14 14 13 12 12 12 12 11 12 14 15 15 16 16 17 17 16 15 15 15 15 15 14 14 13 13 12 12 12 12 14 16 18 19 20 19 17 19 19 17 14 10 8 8 9 11 12 12 11
17 16 14 14 15 15 14 14 14 13 11 11 11 12 12 12 12 11 12 12 12 11 11 10 10 11 12 12 11 10 10 12 14 15 15 15 14 14 13 13 12 12 11 11 11 13 15 16 17 16 15 15 15 14 14 14 14 14 13 13 12 12 12 12 12 13 13 15 17 17 18 18 18 19 19 19 18 16 14 12 11 11 12 11 11
17 16 14 14 14 15 14 13 13 13 11 11 11 12 12 11 11 11 11 11 11 11 11 10 10 11 12 11 11 10 11 12 14 15 15 15 15 14 14 13 12 12 11 11 11 13 15 16 18 17 14 15 15 15 14 14 15 14 14 14 13 14 14 14 14 14 14 15 16 16 17 18 19 19 19 18 18 18 18 16 15 14 13 13 13
17 16 14 13 13 13 13 13 13 12 12 11 11 12 12 11 11 10 10 10 9 10 10 11 10 11 12 11 12 12 13 14 15 15 15 15 15 15 15 14 13 12 12 12 12 14 16 17 19 17 14 16 16 16 16 16 16 16 16 17 17 17 17 18 16 17 16 16 17 18 18 19 20 20 19 18 18 17 17 17 17 16 15 15 14
16 15 14 13 13 13 13 13 13 13 12 11 11 13 12 12 12 11 10 8 8 9 10 11 11 11 11 11 13 14 15 15 16 16 15 15 15 15 15 14 14 13 13 13 14 16 17 18 19 16 14 16 16 17 17 17 17 17 18 18 18 19 19 19 18 18 19 19 20 20 21 20 20 20 19 19 19 18 18 18 17 17 16 16 15
16 16 15 14 13 13 12 12 12 12 12 10 10 11 11 11 11 10 9 7 8 10 11 12 11 11 11 11 13 15 16 16 16 16 15 15 15 15 15 14 14 14 14 15 16 17 17 17 17 16 15 16 17 17 17 17 17 17 18 18 19 19 20 19 18 19 21 22 23 22 21 20 19 20 20 20 20 20 20 19 19 18 17 17 16
17 16 15 15 14 13 13 12 12 11 11 10 10 9 10 10 9 9 8 8 9 10 13 13 11 11 10 11 14 15 16 17 16 16 16 15 15 14 14 14 14 14 15 15 16 17 17 16 17 17 17 17 17 17 17 17 17 18 18 18 19 19 19 19 18 20 20 20 21 21 19 19 18 18 20 20 20 20 20 20 20 19 18 18 17
17 15 15 14 14 14 13 13 12 11 10 11 10 9 9 9 8 8 8 8 9 11 13 13 11 11 10 11 13 14 16 16 16 16 15 15 15 14 14 13 14 14 14 16 17 17 17 17 17 18 17 17 17 17 17 18 18 18 18 19 19 19 19 17 18 18 18 18 20 19 17 17 17 17 20 21 20 21 20 20 20 20 20 19 19
17 15 15 14 14 14 14 13 12 11 11 11 10 8 8 9 8 8 8 8 9 11 13 13 11 11 11 11 12 13 14 15 15 15 15 15 15 14 13 13 13 14 14 16 16 16 17 17 17 17 17 18 17 17 18 18 18 18 18 19 19 19 17 17 18 17 17 17 18 20 19 17 17 18 20 20 20 21 21 21 21 21 20 20 20
17 16 15 14 14 14 14 13 12 11 10 10 9 8 8 9 9 9 8 8 9 11 13 13 11 11 11 11 11 12 13 13 14 14 14 14 14 14 13 13 13 14 14 16 16 16 16 17 17 17 17 18 17 17 17 17 17 18 18 19 19 18 17 18 19 17 17 18 19 21 21 18 18 19 20 20 20 21 21 21 22 22 21 20 20
17 16 14 13 14 14 13 12 12 11 10 10 9 8 8 8 8 8 8 8 9 10 12 12 11 10 10 10 10 11 12 13 13 13 13 13 13 13 13 13 12 13 14 15 15 15 16 17 17 17 17 17 17 17 16 17 17 17 18 18 19 18 17 18 19 18 17 19 21 19 19 18 18 19 19 20 20 21 20 20 22 22 21 21 20
18 17 15 13 13 13 13 12 11 10 10 9 8 8 8 8 8 8 8 8 9 10 11 11 10 8 8 9 9 11 12 12 13 13 13 12 12 13 13 12 12 13 13 14 15 15 16 17 17 17 17 17 16 16 16 17 17 17 17 18 18 17 17 18 18 17 16 19 20 17 18 18 17 19 19 19 20 21 21 21 23 23 22 22 21
19 18 16 14 14 14 13 13 11 10 10 9 8 8 8 8 8 8 8 8 9 10 10 10 9 8 7 8 9 10 12 12 13 13 13 12 12 13 13 13 12 12 13 13 15 16 16 16 16 17 16 16 16 16 16 16 16 16 17 17 17 16 16 17 17 17 16 18 19 18 18 18 18 20 20 19 20 22 22 21 23 22 22 23 21
19 18 15 14 14 14 13 13 12 10 10 10 9 8 8 8 8 8 8 8 8 9 9 9 8 7 7 7 8 9 10 12 12 13 13 12 12 13 13 13 13 13 13 14 15 16 16 16 16 17 16 17 17 16 17 16 16 16 16 16 16 15 15 16 17 16 15 15 17 18 18 19 20 21 20 19 20 21 20 20 20 20 21 22 21
19 17 16 15 14 15 14 13 13 12 12 11 10 9 8 8 8 9 8 8 8 8 8 8 8 7 7 7 7 8 9 10 11 13 13 12 13 13 14 14 14 14 15 16 17 17 17 17 17 17 17 17 17 17 17 16 16 16 16 15 15 15 14 15 16 16 15 14 15 15 17 17 18 20 19 18 18 19 18 19 19 19 20 20 20
21 17 16 16 15 15 14 14 14 13 12 11 11 9 9 9 9 9 8 8 7 7 7 7 7 7 7 6 6 6 7 8 9 11 12 12 13 13 14 15 15 15 16 17 17 17 17 17 17 17 16 16 16 16 16 16 16 15 15 14 14 14 14 15 16 16 15 16 16 14 15 15 15 17 18 18 18 18 18 18 18 18 19 19 18
21 18 18 18 17 16 15 15 15 14 12 12 12 10 10 10 9 9 9 8 7 7 7 7 7 6 6 6 5 5 6 7 7 9 11 11 12 13 14 14 15 15 16 16 16 16 16 16 16 16 16 16 16 16 16 16 15 15 14 13 12 13 13 14 16 16 16 17 17 16 15 14 14 14 15 17 17 17 17 16 16 16 16 17 16
22 21 20 20 19 17 16 16 16 15 14 13 13 12 12 12 10 9 9 9 8 8 8 7 7 6 6 5 4 5 5 6 6 7 9 10 11 12 13 13 13 14 14 14 15 15 15 15 15 15 15 15 15 15 15 15 15 14 13 12 12 11 12 14 15 16 17 18 17 16 16 15 13 12 13 14 14 16 16 14 15 15 14 14 14
23 23 21 21 21 19 18 17 16 16 15 15 14 13 12 13 12 10 10 10 9 10 9 9 8 7 6 5 4 4 4 5 5 5 7 8 9 11 11 11 11 12 12 13 13 13 14 14 14 14 14 13 13 14 14 15 14 13 12 12 11 11 12 13 13 14 15 16 15 15 16 16 15 14 15 14 12 12 12 12 13 14 14 11 10
24 24 23 22 21 21 21 18 16 16 16 16 15 14 14 14 13 12 12 11 11 11 11 11 9 8 7 6 5 4 4 4 4 4 5 6 7 9 9 9 10 10 11 11 11 12 12 12 12 13 12 12 12 13 14 14 13 12 12 11 10 11 13 13 13 14 14 15 15 16 17 16 16 15 16 16 14 12 9 8 9 10 10 8 6
25 26 25 23 23 22 22 20 19 18 18 18 16 15 16 14 13 13 13 13 12 12 13 13 11 10 8 7 6 5 4 4 4 4 4 5 6 7 9 9 9 9 9 10 9 9 10 10 10 10 11 10 10 11 12 13 13 12 11 10 10 12 13 13 14 16 17 18 17 17 17 16 16 16 16 16 17 17 14 11 10 7 5 5 5
25 26 26 25 25 24 22 22 22 22 20 20 18 15 17 16 14 14 15 15 14 13 14 14 13 11 10 9 8 7 6 5 5 5 5 5 5 6 8 8 8 8 8 8 8 8 8 9 9 9 9 9 9 10 11 12 12 10 10 10 11 13 13 13 14 16 18 20 20 17 16 16 16 17 18 18 19 19 20 18 16 13 11 9 8
24 25 26 25 25 24 23 23 23 24 23 22 21 17 17 16 16 15 16 16 15 15 15 15 15 13 11 10 9 8 8 7 5 5 6 5 5 6 8 8 9 8 7 7 7 7 7 8 9 8 8 7 8 9 10 10 10 9 9 9 10 11 11 11 12 14 16 18 19 18 16 16 17 19 19 20 20 20 21 21 20 18 17 14 13
23 24 24 25 25 25 24 24 24 24 24 24 24 22 19 17 17 17 16 17 17 17 17 17 16 15 13 12 11 10 9 8 6 6 7 7 6 7 8 8 9 9 7 6 6 7 7 7 8 7 7 6 6 7 8 8 8 7 8 8 9 9 9 9 10 11 13 14 16 18 18 18 18 20 20 18 19 20 20 20 20 18 16 13 12
24 23 23 23 24 26 26 26 26 25 26 26 25 25 23 20 19 19 18 18 18 18 18 18 17 17 16 14 13 12 11 11 8 8 9 9 8 8 9 10 9 9 7 5 5 6 6 6 5 4 4 5 4 6 6 6 7 6 7 7 7 7 7 7 8 9 10 11 12 16 20 21 19 19 19 18 18 18 18 18 18 16 14 11 11
22 22 22 22 22 23 24 24 24 24 25 25 25 26 25 23 20 21 21 19 20 20 20 20 19 18 18 16 15 13 12 12 11 10 10 11 10 10 11 11 10 9 8 6 5 6 5 4 3 3 4 5 4 5 6 5 6 6 6 6 5 6 7 7 8 9 10 12 12 13 20 21 19 18 18 18 17 16 16 15 14 12 10 8 11
22 22 22 21 21 20 20 21 21 21 21 22 23 23 24 24 21 22 25 23 22 21 21 21 20 20 20 18 17 16 14 14 13 11 12 12 11 11 11 12 12 11 10 8 6 6 5 4 3 2 4 5 5 5 5 5 6 6 6 6 6 6 8 11 12 12 13 14 13 12 14 17 16 15 16 17 16 16 15 13 11 10 6 5 10
23 22 21 21 20 19 20 21 22 22 22 21 22 21 21 22 23 23 24 23 22 22 23 23 21 21 22 20 18 17 16 16 15 13 13 13 12 12 12 13 13 12 11 9 7 5 6 6 3 1 2 4 5 5 5 5 6 7 7 7 8 9 12 14 14 14 14 15 15 12 11 12 12 12 13 14 14 14 13 11 12 11 6 5 8
23 24 22 21 20 20 21 21 22 22 22 23 22 23 22 23 26 24 23 23 22 23 24 22 21 21 24 23 20 19 17 16 16 15 15 14 13 14 15 14 12 12 12 11 8 6 5 5 4 3 2 3 5 4 4 4 6 7 8 10 11 13 14 15 15 15 14 14 14 13 11 10 10 11 11 11 10 10 9 7 7 5 6 8 8
23 24 23 23 22 21 21 20 20 20 21 23 23 24 24 26 27 26 24 24 25 25 22 21 21 22 24 22 21 19 18 17 17 17 17 14 14 17 17 15 11 11 12 11 9 8 6 6 5 4 3 2 4 3 4 5 8 10 12 14 14 15 15 15 15 14 13 13 12 11 11 10 10 10 9 9 8 7 6 4 2 3 7 11 10
23 23 23 23 23 21 21 20 20 21 22 23 23 24 25 26 27 27 26 26 27 27 24 23 21 22 22 22 21 19 19 20 19 18 20 17 16 18 19 16 12 11 12 10 10 10 8 7 6 5 5 3 2 1 3 5 9 12 14 15 15 15 14 14 14 13 12 12 11 10 9 9 9 9 9 9 8 7 6 5 6 6 7 10 11
22 22 23 23 23 22 22 22 22 22 23 23 23 24 25 26 27 27 27 28 28 27 25 23 21 22 22 22 22 19 19 20 20 19 20 19 18 20 21 18 14 14 14 13 12 12 10 8 7 7 8 4 1 1 2 4 8 13 15 15 16 15 14 13 13 12 11 10 10 9 8 8 8 8 8 8 8 8 8 8 8 8 9 9 10
23 23 23 23 23 23 23 22 22 22 22 23 24 25 26 26 27 28 27 28 27 24 22 22 24 25 22 22 22 21 22 22 22 20 20 20 20 22 23 18 15 16 16 15 15 16 12 9 8 10 11 7 3 3 1 1 7 13 15 15 15 14 13 12 12 11 10 9 8 7 7 6 6 7 7 8 8 9 9 9 9 9 9 9 9
25 24 23 22 23 23 23 23 22 22 23 23 23 24 24 26 28 28 26 26 26 24 23 23 26 27 23 24 25 23 23 23 23 22 21 22 21 23 23 17 16 18 18 16 17 19 14 11 11 12 14 9 4 4 1 1 6 12 13 14 14 13 13 11 10 9 8 7 6 5 5 5 6 7 7 8 8 9 9 9 9 9 9 9 9
26 25 24 23 23 23 23 24 23 24 24 24 23 23 23 25 27 27 26 26 26 26 26 26 28 28 24 26 27 24 24 24 23 23 24 24 22 23 24 21 20 21 21 17 18 20 14 14 14 13 15 10 5 5 2 3 7 11 12 12 13 12 11 10 9 7 5 5 4 3 4 5 5 6 7 8 8 8 8 8 8 8 8 8 8
27 26 25 24 24 24 24 24 25 25 25 25 25 24 24 25 26 26 26 26 27 29 29 28 28 28 24 26 28 25 26 25 23 23 25 26 25 28 30 26 22 23 22 18 18 19 16 17 16 15 16 10 7 8 4 5 8 11 11 11 12 12 10 8 7 5 3 3 2 3 4 4 5 6 7 7 7 7 7 7 8 8 8 8 8
27 28 27 26 25 25 25 25 25 26 26 26 26 26 25 25 25 25 25 26 27 29 30 28 28 28 26 26 27 24 24 25 26 26 25 26 27 30 32 29 24 24 23 18 18 20 20 21 19 18 18 11 10 10 6 7 9 10 12 12 11 10 9 7 5 3 2 1 1 3 4 5 5 6 7 7 7 7 8 8 8 8 8 7 7
28 29 29 29 28 27 26 26 27 27 28 28 27 27 26 25 25 25 26 26 27 28 29 29 29 29 28 26 26 25 24 24 27 25 21 23 26 26 27 28 28 26 23 21 22 21 22 24 22 21 20 14 13 11 8 9 10 11 13 12 11 9 8 6 4 3 1 0 2 3 4 5 5 6 7 7 8 8 8 8 8 8 8 8 8
28 29 30 31 30 29 28 28 29 29 30 29 29 28 27 26 26 27 27 27 27 28 27 28 29 30 28 27 27 29 27 24 25 25 22 22 25 26 25 27 29 26 22 23 25 24 23 24 25 25 22 17 16 13 10 10 11 13 13 12 11 9 8 6 4 4 3 2 3 4 5 5 6 6 7 7 8 8 8 8 8 8 8 8 8
28 29 31 32 32 31 30 29 29 31 32 31 30 30 29 29 27 27 28 26 26 26 26 28 30 29 29 28 28 29 28 25 26 27 27 27 28 30 29 30 30 26 23 23 26 26 23 24 27 27 22 18 17 15 13 11 11 14 14 13 11 9 8 7 6 6 4 4 5 5 5 6 6 7 7 8 8 8 8 8 8 8 8 8 8
29 30 31 32 33 33 32 31 30 31 32 32 32 31 30 30 28 27 27 26 26 27 26 28 30 29 29 30 28 27 25 26 27 26 26 28 31 33 33 32 32 29 25 24 27 27 23 25 30 28 22 18 16 16 16 14 13 14 13 13 13 11 10 9 8 8 7 6 6 6 6 7 7 7 8 8 9 8 8 8 8 8 8 8 8
29 30 31 32 33 33 33 33 31 31 32 33 33 32 31 30 29 28 27 25 26 26 24 25 29 29 30 30 27 26 26 28 29 27 26 26 27 31 33 31 30 30 30 29 28 27 25 28 32 29 23 20 18 18 18 16 16 15 13 13 13 12 11 11 11 9 8 8 8 8 8 8 7 8 8 8 9 8 8 8 8 8 7 7 7
31 31 32 33 34 34 33 33 32 32 32 34 34 32 31 30 29 28 27 25 24 24 23 24 28 31 32 32 30 29 29 30 30 28 27 27 27 29 28 27 28 30 31 30 29 28 27 31 34 30 23 21 20 21 20 18 18 18 16 14 14 12 10 11 13 11 9 10 10 9 9 9 8 8 9 8 8 8 8 8 8 8 7 7 7
29 30 32 33 33 34 34 34 33 33 33 34 35 34 33 31 30 30 28 27 27 28 28 27 30 33 35 35 34 32 31 32 30 27 26 28 29 31 30 27 28 30 32 30 29 29 29 33 35 28 23 21 21 22 22 20 20 19 16 13 12 11 11 11 11 11 11 12 12 11 11 10 9 9 9 8 8 8 8 8 8 7 7 7 7
23 27 29 30 31 32 34 35 35 34 34 34 35 35 34 32 32 32 31 31 32 31 30 30 32 34 35 36 35 34 33 32 31 28 26 26 29 33 35 35 34 33 31 28 29 29 31 35 33 26 24 23 22 21 22 23 22 21 18 14 10 9 11 11 10 11 12 13 13 13 12 11 11 10 9 9 8 8 8 8 7 8 7 8 8
19 21 25 27 29 31 33 35 36 36 36 35 35 36 35 34 34 33 33 33 33 31 29 29 32 32 33 35 35 35 34 32 30 29 29 28 30 33 35 36 36 34 31 29 30 30 31 33 30 26 26 24 22 21 21 24 23 21 19 16 12 9 10 10 10 11 11 12 14 14 14 13 12 11 10 9 9 9 8 8 8 8 8 8 8
18 21 24 26 28 30 32 34 36 37 38 37 36 36 36 35 35 34 33 33 32 31 29 28 31 31 32 34 36 36 34 30 28 29 30 30 31 34 34 32 33 35 33 30 30 30 29 30 30 29 28 25 23 21 21 23 21 19 19 17 14 11 10 10 10 10 10 11 13 14 15 14 13 12 11 10 9 9 9 9 9 9 9 9 9
16 20 23 25 26 28 30 32 34 36 37 38 36 36 36 35 35 35 34 34 33 32 29 28 29 29 31 34 36 36 34 32 30 30 31 30 30 34 33 30 33 36 36 33 30 28 29 32 33 31 29 26 24 22 20 21 19 17 17 17 15 13 12 11 11 10 11 11 12 13 14 14 13 12 11 10 10 10 10 10 10 10 10 10 10
14 16 20 22 25 27 29 30 32 34 36 36 36 36 36 36 36 36 36 35 34 33 30 29 30 31 33 35 36 37 36 34 32 32 31 29 31 35 33 32 33 35 37 35 31 29 31 34 33 31 29 26 24 23 21 20 18 16 16 15 14 14 13 12 11 11 11 12 12 13 13 13 13 12 11 10 10 10 10 10 10 11 11 12 12
14 16 18 21 24 27 29 30 31 33 35 34 35 35 35 36 37 37 37 36 35 34 32 31 33 35 35 35 35 36 35 34 33 32 31 30 32 34 31 31 32 32 35 34 30 30 32 34 33 31 29 27 25 24 23 21 19 17 17 16 14 13 11 9 9 9 10 11 12 13 12 12 13 12 11 10 11 11 11 11 11 12 12 13 14
Wind_Direction
145 142 136 135 127 119 115 116 128 135 132 128 122 114 111 109 109 106 101 96 92 86 80 74 67 63 63 61 60 61 66 71 78 83 86 91 95 97 98 96 94 94 92 89 88 91 93 94 94 95 96 95 94 93 89 88 89 90 89 88 86 84 80 77 72 69 61 58 77 86 78 69 66 68 70 75 81 78 74 68 66 67 65 59 56
146 144 140 140 134 125 120 120 124 135 138 136 133 128 122 117 115 110 107 101 95 89 82 76 68 65 64 61 59 59 65 73 81 84 87 92 97 100 102 101 99 97 95 91 87 88 90 91 92 94 97 97 96 94 89 87 87 89 89 88 87 86 84 79 74 67 63 69 83 87 84 79 73 70 69 71 73 75 74 67 61 61 60 53 52
150 148 145 143 139 130 125 127 127 131 135 137 143 143 134 125 121 114 109 103 96 89 84 77 74 76 73 66 58 59 69 77 83 84 86 93 98 103 105 103 102 100 96 93 88 88 91 91 89 88 94 97 95 92 87 85 85 85 86 85 84 84 83 81 76 70 70 80 85 82 81 79 75 71 69 69 68 69 71 71 67 62 59 52 53
156 152 150 146 141 135 130 129 127 128 129 134 145 149 142 134 128 119 110 102 96 89 87 82 81 84 77 68 60 68 82 85 85 84 87 92 97 101 104 104 102 99 96 95 91 89 91 93 92 90 93 95 93 90 86 85 84 83 83 81 80 79 80 80 78 77 81 87 85 78 76 76 74 72 70 69 68 69 70 72 71 68 65 61 59
159 157 151 146 143 138 134 132 129 131 132 134 141 148 148 144 136 125 115 104 93 82 87 90 88 88 78 69 68 79 89 89 87 85 87 92 96 99 101 103 101 98 96 95 93 91 92 94 94 94 95 93 91 91 89 87 85 83 83 81 80 79 79 79 82 85 89 89 86 84 82 78 74 71 71 72 72 73 74 74 73 71 68 66 64
159 157 151 145 145 141 138 137 136 134 133 136 141 148 151 150 140 129 121 104 82 69 82 95 94 91 80 73 75 82 87 88 87 84 85 89 94 97 99 100 101 100 96 94 93 92 94 95 97 100 98 93 90 90 89 87 86 85 84 83 81 80 80 82 86 89 91 90 88 87 85 80 74 72 70 72 75 75 77 77 75 73 71 69 67
159 155 152 148 146 142 142 140 139 135 133 138 141 146 150 149 143 132 120 98 76 70 86 99 99 93 84 79 80 82 84 85 85 84 84 86 90 93 96 98 100 100 97 95 93 94 97 101 107 107 100 96 93 92 91 90 88 86 84 82 80 80 82 86 89 89 90 89 85 83 80 77 73 70 68 71 75 76 76 77 75 73 73 72 69
160 157 154 150 147 145 145 143 138 136 134 137 136 135 142 146 142 129 115 92 76 78 93 102 101 95 88 85 84 82 81 81 82 83 83 84 87 91 94 98 101 101 99 95 94 95 97 101 106 104 99 96 93 92 92 90 87 83 82 80 79 79 82 87 88 87 85 83 82 80 74 70 69 67 67 71 75 77 76 75 74 73 73 72 70
159 158 157 151 151 150 146 144 141 140 137 137 136 133 134 138 135 123 108 91 82 88 99 104 104 98 91 88 85 83 81 79 79 81 83 84 85 89 94 98 101 102 101 97 95 97 98 100 101 100 97 94 90 88 85 83 81 79 78 76 75 76 78 81 81 81 77 75 77 76 74 69 66 65 66 69 71 74 74 72 72 70 70 68 67
160 161 160 157 159 156 150 146 146 145 140 139 139 138 132 129 124 115 104 91 91 97 104 108 107 99 89 87 84 83 83 80 79 79 81 84 85 87 90 94 98 100 98 97 96 98 102 102 98 97 95 93 89 84 80 79 78 76 74 72 71 71 71 71 70 71 72 73 73 70 72 72 65 64 65 65 67 69 70 69 68 67 66 64 64
162 164 165 163 164 160 154 150 149 147 143 143 142 141 128 121 116 110 103 94 99 106 109 110 108 98 87 84 83 82 83 82 80 79 79 83 86 87 87 88 93 96 95 96 97 98 100 99 97 95 93 91 88 84 81 79 77 75 73 71 70 68 67 68 67 68 73 77 75 69 67 67 65 63 63 64 64 63 64 66 65 63 62 61 61
168 165 169 167 166 163 158 155 153 151 149 147 146 139 124 119 118 112 106 101 106 111 113 113 109 98 86 83 80 80 81 81 80 79 78 82 88 90 90 89 91 94 95 96 96 97 98 98 98 96 93 90 87 85 82 78 76 74 72 70 68 65 64 67 69 71 74 75 73 70 66 63 61 60 61 63 61 58 59 62 58 57 58 55 55
176 168 171 171 171 168 163 162 159 157 154 152 149 140 129 127 125 120 111 106 108 111 114 113 111 101 88 83 79 78 79 81 81 80 79 82 89 92 93 93 94 95 96 95 93 93 95 97 97 94 92 89 86 83 79 77 74 72 71 69 67 65 63 65 69 73 74 73 71 70 68 63 61 61 60 58 58 57 58 57 52 52 53 48 49
179 170 170 173 176 173 170 168 165 165 163 158 156 148 139 137 134 128 120 115 113 114 116 114 114 104 92 86 80 79 81 83 81 80 80 84 90 95 95 95 95 96 96 94 93 93 94 96 95 93 90 88 85 81 78 75 73 70 70 69 68 66 65 67 70 73 74 75 76 75 71 67 68 67 61 55 55 57 56 53 51 52 49 45 49
178 173 174 174 177 176 175 174 171 174 172 166 165 161 151 147 146 139 131 128 124 122 123 122 118 103 95 91 84 84 86 85 81 80 80 84 92 97 99 98 98 98 98 96 95 95 96 96 95 94 91 88 85 81 78 74 71 68 67 67 67 66 65 69 72 74 74 76 78 79 77 72 72 69 61 57 56 58 57 53 52 52 50 48 52
179 177 179 178 181 180 179 180 177 179 180 175 174 172 165 161 156 148 144 142 138 136 136 134 123 105 97 93 90 91 92 87 82 82 83 86 93 100 102 102 102 101 101 99 99 100 99 97 96 94 91 89 86 82 78 74 70 67 65 64 65 64 63 67 72 73 75 79 77 77 79 78 78 74 68 64 60 60 60 57 55 55 57 54 54
182 181 184 183 185 185 184 185 182 185 188 181 182 180 174 173 165 158 157 156 152 150 149 142 129 117 106 100 100 100 100 93 86 86 87 90 96 103 105 104 105 104 104 103 103 102 100 99 97 95 93 90 86 82 77 73 69 65 63 62 63 65 64 68 74 76 77 82 80 76 77 82 88 84 79 75 68 64 63 62 61 59 62 59 55
183 185 189 188 188 190 189 190 187 189 192 188 191 190 183 182 177 170 168 170 169 165 162 153 141 131 119 113 111 113 115 105 97 94 92 95 100 106 108 108 108 108 109 108 108 106 104 102 99 97 94 90 85 79 75 70 65 62 61 61 64 67 69 72 77 81 80 80 80 78 80 89 98 95 88 86 80 73 68 67 66 64 64 62 56
187 190 194 191 191 192 192 194 192 192 195 196 199 198 193 189 187 185 181 181 180 178 176 170 162 149 135 129 121 124 129 120 112 103 97 99 104 109 110 110 112 113 114 113 111 108 106 104 102 99 93 88 81 76 69 65 61 59 60 60 63 68 71 74 80 82 79 76 74 75 78 86 95 91 83 87 93 88 80 77 76 71 68 67 63
193 196 198 196 195 197 197 198 195 198 199 200 203 203 203 198 195 196 193 191 188 187 185 183 177 165 157 150 141 142 145 134 127 114 104 101 106 112 113 112 112 114 115 114 111 107 106 105 104 100 94 85 77 71 65 60 57 58 60 61 63 66 70 75 81 80 75 73 73 75 76 75 77 74 70 77 90 98 95 91 87 80 73 72 71
198 200 202 200 200 202 203 202 199 203 204 203 203 204 210 205 203 205 201 199 197 194 191 192 189 178 176 170 165 171 170 155 144 132 117 109 112 119 121 119 114 114 115 113 109 105 105 106 106 101 92 83 75 67 61 57 56 58 61 63 66 68 73 77 80 83 82 77 73 73 74 72 70 68 66 68 75 84 91 92 93 88 78 71 65
201 202 204 204 205 207 207 205 204 207 209 209 205 208 215 207 207 215 209 205 203 201 197 198 196 188 187 182 181 190 195 186 165 152 143 129 125 130 132 129 123 119 119 117 113 108 107 107 107 103 92 82 74 66 62 59 59 63 66 68 71 74 78 79 82 88 91 88 79 70 70 71 70 70 67 64 65 69 71 72 78 77 65 53 43
203 204 205 205 207 210 210 208 208 210 212 213 209 212 219 210 209 217 213 209 207 207 204 202 200 195 194 192 193 201 208 208 186 169 166 152 143 146 144 140 135 131 129 127 122 115 112 111 110 103 91 81 73 68 65 63 66 71 75 74 74 79 81 80 82 85 90 91 86 76 73 73 72 71 67 65 64 63 63 64 61 56 52 49 46
205 206 206 205 207 211 213 212 211 212 213 214 212 212 219 213 211 218 217 213 210 211 209 207 205 201 200 201 201 205 213 220 203 182 182 172 164 163 158 152 147 143 142 139 131 126 123 119 114 105 95 85 75 71 68 67 74 80 82 80 79 82 81 79 79 83 90 93 93 88 80 75 73 71 67 65 65 62 59 58 53 49 48 51 59
208 209 209 208 209 212 215 218 216 215 217 219 218 217 220 217 214 218 219 217 215 215 215 213 210 206 206 206 207 209 216 225 215 193 193 186 181 180 173 166 159 154 152 150 142 140 139 128 117 112 103 84 70 71 71 73 80 86 88 87 87 86 82 78 77 82 89 95 100 100 94 83 76 74 71 66 64 63 58 56 52 44 38 44 56
213 213 213 212 213 214 215 218 218 217 220 222 222 220 221 221 219 221 221 220 220 219 219 217 214 212 210 211 213 213 218 226 223 206 200 195 191 189 181 174 171 165 159 162 159 154 150 131 120 118 88 59 64 77 77 80 85 91 93 92 92 85 75 73 79 85 90 98 105 105 102 95 85 80 78 72 65 64 62 60 59 51 45 43 33
218 217 216 217 217 217 217 218 217 216 219 222 222 222 222 221 220 225 225 223 221 221 222 221 218 216 213 214 217 216 220 226 226 217 206 200 197 194 187 180 180 174 163 164 162 151 145 127 115 100 55 49 77 86 81 86 93 100 102 95 85 72 70 81 93 97 96 103 106 105 106 104 98 94 90 82 71 67 66 66 66 62 56 35 11
225 223 221 221 224 224 223 223 223 223 224 223 223 225 223 219 216 219 224 227 225 223 225 225 222 219 216 217 219 219 222 228 227 220 210 204 199 197 194 187 185 181 170 162 158 146 143 147 140 70 36 55 70 74 86 103 112 113 107 91 80 77 86 95 99 99 97 100 101 100 105 108 107 102 99 96 88 81 75 72 71 61 46 8 1
232 233 230 227 229 229 227 228 229 230 232 232 229 227 222 220 222 218 221 228 229 226 227 228 224 221 220 218 220 221 222 227 227 216 211 210 204 201 201 197 190 187 182 168 161 158 155 166 182 273 4 41 37 53 83 111 129 124 109 98 95 97 98 99 98 98 99 100 100 98 94 97 101 97 98 104 106 101 90 87 86 67 35 357 357
235 237 236 234 234 232 231 231 230 229 232 235 232 229 224 220 226 226 221 222 224 228 228 229 228 224 225 224 225 226 224 226 224 217 214 213 211 208 205 202 195 193 194 178 170 177 176 185 205 240 283 9 15 40 63 92 136 137 120 113 108 106 103 103 104 104 104 101 99 98 92 86 87 87 89 96 106 113 106 102 103 74 24 15 5
235 236 237 237 237 235 235 233 232 229 230 234 230 230 228 224 228 231 230 227 224 224 222 225 231 229 229 233 233 230 229 226 221 221 220 218 221 217 205 196 197 206 201 186 181 189 193 202 205 217 245 332 3 39 61 89 127 132 123 117 113 112 111 111 111 108 105 100 95 92 88 80 72 70 70 75 80 85 88 75 50 9 23 35 25
239 239 239 239 238 238 238 236 233 229 227 231 230 230 232 231 232 234 237 236 229 226 221 221 228 228 231 239 235 228 230 225 217 221 223 225 229 221 204 189 201 224 217 207 199 194 200 208 209 221 238 276 334 70 90 101 120 125 122 120 119 120 119 117 114 107 101 94 89 83 75 68 59 52 48 48 46 44 43 26 16 4 13 35 37
240 241 242 241 240 239 239 237 233 229 224 225 227 229 232 234 236 237 236 235 231 226 220 221 226 224 231 236 228 227 232 225 218 221 224 228 231 223 206 192 207 227 222 224 214 199 206 214 221 224 225 243 251 130 101 111 124 125 124 125 127 126 122 118 112 104 97 88 80 73 64 54 46 41 35 33 30 26 21 12 11 7 6 22 35
238 239 241 241 241 240 239 238 235 233 229 225 225 226 232 235 237 237 234 233 231 225 216 222 227 222 227 230 226 231 232 224 222 226 226 227 232 227 210 199 216 225 217 220 212 199 202 217 233 224 214 224 213 156 111 125 132 128 128 130 132 127 123 119 112 103 95 87 77 67 57 47 40 34 29 26 21 15 12 8 2 360 2 4 12
236 237 240 242 243 242 240 240 238 238 236 234 233 230 232 235 238 238 235 231 228 223 215 215 219 219 225 227 224 229 224 219 222 225 228 226 228 225 214 213 230 228 216 217 211 200 200 223 240 230 214 213 204 175 175 218 147 136 133 135 134 127 125 121 113 104 93 84 72 59 47 34 30 24 20 15 9 5 360 359 355 352 354 350 352
237 237 240 243 244 244 242 240 238 237 238 239 240 239 236 235 236 238 236 231 225 221 217 214 217 222 228 223 218 223 224 225 223 221 228 229 226 225 221 226 235 231 218 213 211 205 213 233 234 229 219 213 204 188 204 233 165 145 140 139 136 131 131 127 116 107 96 87 69 47 30 19 14 10 7 0 354 353 349 347 346 345 346 343 343
239 238 240 242 245 246 244 242 239 237 238 238 240 240 238 236 235 236 235 231 224 220 219 219 220 222 224 219 218 227 232 233 228 224 231 231 229 230 224 222 229 229 218 211 212 216 231 234 223 221 218 214 205 197 220 225 174 151 148 146 143 139 138 133 124 120 109 92 58 23 9 359 358 355 350 348 343 342 341 341 342 342 343 341 341
240 239 239 241 244 246 246 244 241 239 238 238 239 237 237 237 236 236 235 231 225 220 218 217 218 221 221 220 222 227 227 226 225 226 229 227 230 230 223 222 223 218 214 216 221 228 234 227 222 221 212 206 204 202 228 219 176 157 157 154 151 148 146 143 139 144 144 99 23 354 344 338 340 342 337 336 336 335 337 339 341 342 341 339 340
241 240 240 240 242 244 245 244 242 242 241 240 239 238 238 237 236 235 233 229 226 222 217 215 216 219 219 220 222 220 219 221 217 217 220 220 225 225 224 227 219 209 212 220 225 229 228 222 224 222 208 199 201 204 223 213 179 163 163 161 159 157 159 159 166 185 196 273 327 318 319 325 326 329 329 330 331 331 334 337 339 338 338 340 342
242 241 241 241 242 245 246 245 243 242 242 241 240 240 239 237 235 233 232 230 226 222 218 215 215 216 217 222 222 217 216 218 218 222 225 220 219 221 227 227 216 213 222 227 229 228 227 228 225 220 210 197 194 202 219 214 183 165 166 168 166 168 175 179 197 213 227 254 279 295 303 311 314 319 322 323 323 325 329 332 334 333 335 338 340
244 242 242 243 245 247 248 247 244 242 242 241 241 240 240 240 237 234 234 232 226 224 219 214 213 215 218 221 219 216 217 224 230 234 232 224 218 218 222 224 222 228 234 235 233 225 227 234 221 211 209 202 196 200 213 215 191 174 171 174 177 181 189 200 216 226 236 251 267 282 291 296 303 311 315 316 317 321 326 327 329 330 333 336 337
247 245 244 245 246 247 249 247 245 243 242 241 241 241 240 242 241 239 238 233 226 226 221 215 216 218 217 216 216 218 227 235 233 232 229 224 221 217 216 221 227 232 232 230 230 226 230 230 214 203 201 204 207 208 212 209 195 189 184 180 184 190 200 213 222 230 237 247 262 270 277 285 296 305 306 309 313 316 321 322 324 326 329 332 331
249 247 246 246 246 247 249 249 247 246 243 242 241 241 241 241 241 239 238 234 229 228 224 219 217 214 212 215 220 225 233 235 231 233 231 224 221 216 214 217 224 230 226 221 224 229 233 222 209 205 203 202 208 215 217 208 195 191 186 185 192 195 206 221 224 230 238 246 257 262 269 279 287 295 298 302 307 310 314 315 318 321 322 324 323
247 247 245 245 245 247 248 249 249 247 245 243 242 241 241 239 238 236 233 231 230 227 227 222 213 209 214 222 227 227 232 234 231 234 232 226 227 224 220 217 220 228 225 224 229 231 231 218 206 207 212 212 215 219 217 208 199 192 185 188 195 196 209 224 225 227 237 244 251 256 261 270 277 283 288 293 299 302 305 308 311 314 315 315 315
246 246 246 247 247 247 248 248 248 246 245 244 243 242 240 238 234 230 225 221 219 221 224 221 211 211 217 223 227 227 233 235 230 228 228 231 235 236 235 228 223 228 229 233 237 234 228 215 204 208 221 228 228 223 212 202 200 199 194 192 189 196 215 221 219 226 238 243 246 250 256 263 269 273 279 286 292 294 296 301 304 308 309 308 308
245 244 245 247 247 247 247 247 247 246 245 245 244 242 241 239 235 232 228 223 220 222 223 222 218 217 219 223 229 231 230 228 225 228 235 240 242 239 238 235 230 230 230 233 234 229 220 208 205 218 232 233 231 225 211 198 198 199 199 198 190 199 214 211 206 219 234 241 243 246 251 257 261 266 273 279 283 284 288 294 297 301 302 298 296
243 242 241 242 243 243 243 244 245 245 245 244 243 241 240 239 238 236 235 232 230 230 227 223 222 223 223 224 228 227 223 222 226 234 241 247 245 237 235 234 230 225 224 227 226 219 212 209 216 233 238 230 223 221 213 202 199 200 198 199 198 199 206 210 214 219 227 237 244 246 249 253 256 261 267 270 273 277 282 288 291 293 292 288 287
239 237 236 237 239 241 242 241 242 243 243 243 242 241 239 238 237 236 233 232 233 234 230 223 220 221 221 221 221 220 223 228 235 240 243 247 244 235 233 229 222 218 217 217 215 213 214 220 229 235 234 225 215 214 213 207 204 202 198 196 199 204 207 218 227 229 232 239 246 248 247 250 253 257 261 263 267 273 278 283 286 286 284 282 283
240 238 237 237 238 240 242 242 243 243 243 243 242 240 239 238 236 234 231 229 228 230 229 224 221 216 215 216 219 224 231 236 241 244 245 249 241 230 228 223 217 217 216 211 208 212 222 228 231 231 226 216 210 210 209 208 208 203 199 196 198 205 211 218 227 233 236 239 246 251 249 247 249 252 256 260 263 268 274 278 281 281 280 280 279
252 248 244 241 238 238 240 241 241 242 242 242 242 241 239 237 235 233 231 230 228 227 225 221 218 215 216 221 226 232 236 236 240 242 245 245 231 222 223 222 218 216 212 208 207 214 226 230 232 231 219 206 204 205 202 205 208 202 198 199 201 205 210 216 223 229 233 236 243 253 253 246 246 249 253 259 261 266 273 277 279 278 277 277 277
257 253 249 244 240 237 237 238 239 241 242 242 241 241 239 237 236 234 232 231 230 229 225 218 217 218 222 227 229 230 230 233 237 239 244 242 224 218 220 217 213 208 204 208 215 224 231 230 228 223 212 203 203 201 197 199 204 201 196 200 207 210 214 218 221 227 234 239 243 249 249 240 241 250 255 258 261 266 273 278 278 277 277 277 276